Time,TemperatureF,DewpointF,PressureIn,WindDirection,WindDirectionDegrees,WindSpeedMPH,WindSpeedGustMPH,Humidity,HourlyPrecipIn,Conditions,Clouds,dailyrainin,SoftwareType,DateUTC
2013-02-20 00:04:00,-4.5,-11.0,30.51,North,-999,1.0,7.0,74,0.00,,,0.00,weatherlink.com 1.10,2013-02-20 06:04:00,
2013-02-20 00:19:00,-4.4,-11.0,30.51,North,-999,2.0,6.0,74,0.00,,,0.00,weatherlink.com 1.10,2013-02-20 06:19:00,
2013-02-20 00:34:00,-4.7,-11.0,30.52,North,-999,2.0,5.0,74,0.00,,,0.00,weatherlink.com 1.10,2013-02-20 06:34:00,
2013-02-20 00:49:00,-5.3,-11.0,30.52,North,-999,3.0,6.0,75,0.00,,,0.00,weatherlink.com 1.10,2013-02-20 06:49:00,
2013-02-20 01:05:00,-5.6,-11.0,30.52,North,-999,2.0,4.0,76,0.00,,,0.00,weatherlink.com 1.10,2013-02-20 07:05:00,
2013-02-20 01:20:00,-5.7,-11.0,30.52,North,-999,1.0,5.0,77,0.00,,,0.00,weatherlink.com 1.10,2013-02-20 07:20:00,
2013-02-20 01:35:00,-5.6,-11.0,30.52,North,-999,0.0,5.0,76,0.00,,,0.00,weatherlink.com 1.10,2013-02-20 07:35:00,
2013-02-20 01:50:00,-5.8,-11.0,30.53,North,-999,0.0,6.0,77,0.00,,,0.00,weatherlink.com 1.10,2013-02-20 07:50:00,
2013-02-20 02:05:00,-6.1,-12.0,30.54,North,-999,0.0,1.0,77,0.00,,,0.00,weatherlink.com 1.10,2013-02-20 08:05:00,
2013-02-20 02:20:00,-7.4,-13.0,30.55,North,-999,1.0,2.0,78,0.00,,,0.00,weatherlink.com 1.10,2013-02-20 08:20:00,
2013-02-20 02:35:00,-7.1,-12.0,30.54,North,-999,0.0,4.0,79,0.00,,,0.00,weatherlink.com 1.10,2013-02-20 08:35:00,
2013-02-20 02:50:00,-7.1,-12.0,30.55,North,-999,3.0,5.0,78,0.00,,,0.00,weatherlink.com 1.10,2013-02-20 08:50:00,
2013-02-20 03:05:00,-7.3,-12.0,30.55,North,-999,3.0,4.0,78,0.00,,,0.00,weatherlink.com 1.10,2013-02-20 09:05:00,
2013-02-20 03:21:00,-7.3,-12.0,30.55,North,-999,4.0,4.0,79,0.00,,,0.00,weatherlink.com 1.10,2013-02-20 09:21:00,
2013-02-20 03:35:00,-7.4,-12.0,30.55,North,-999,2.0,4.0,80,0.00,,,0.00,weatherlink.com 1.10,2013-02-20 09:35:00,
2013-02-20 03:51:00,-7.6,-12.0,30.55,North,-999,1.0,4.0,80,0.00,,,0.00,weatherlink.com 1.10,2013-02-20 09:51:00,
2013-02-20 04:05:00,-8.2,-13.0,30.55,North,-999,1.0,2.0,80,0.00,,,0.00,weatherlink.com 1.10,2013-02-20 10:05:00,
2013-02-20 04:20:00,-8.1,-12.0,30.55,North,-999,2.0,4.0,81,0.00,,,0.00,weatherlink.com 1.10,2013-02-20 10:20:00,
2013-02-20 04:36:00,-9.1,-14.0,30.55,North,-999,0.0,2.0,80,0.00,,,0.00,weatherlink.com 1.10,2013-02-20 10:36:00,
2013-02-20 04:51:00,-8.2,-12.0,30.56,North,-999,0.0,3.0,82,0.00,,,0.00,weatherlink.com 1.10,2013-02-20 10:51:00,
2013-02-20 05:06:00,-9.8,-14.0,30.56,North,-999,0.0,3.0,81,0.00,,,0.00,weatherlink.com 1.10,2013-02-20 11:06:00,
2013-02-20 05:21:00,-9.0,-13.0,30.57,North,-999,3.0,4.0,82,0.00,,,0.00,weatherlink.com 1.10,2013-02-20 11:21:00,
2013-02-20 05:36:00,-9.1,-13.0,30.57,North,-999,0.0,4.0,82,0.00,,,0.00,weatherlink.com 1.10,2013-02-20 11:36:00,
2013-02-20 05:51:00,-9.4,-13.0,30.57,North,-999,0.0,1.0,83,0.00,,,0.00,weatherlink.com 1.10,2013-02-20 11:51:00,
2013-02-20 06:06:00,-9.8,-14.0,30.57,North,-999,2.0,3.0,83,0.00,,,0.00,weatherlink.com 1.10,2013-02-20 12:06:00,
2013-02-20 06:21:00,-9.7,-14.0,30.57,North,-999,1.0,2.0,83,0.00,,,0.00,weatherlink.com 1.10,2013-02-20 12:21:00,
2013-02-20 06:36:00,-10.0,-14.0,30.57,North,-999,1.0,2.0,83,0.00,,,0.00,weatherlink.com 1.10,2013-02-20 12:36:00,
2013-02-20 06:51:00,-9.9,-13.0,30.58,North,-999,1.0,2.0,84,0.00,,,0.00,weatherlink.com 1.10,2013-02-20 12:51:00,
2013-02-20 07:06:00,-9.8,-14.0,30.58,North,-999,5.0,5.0,83,0.00,,,0.00,weatherlink.com 1.10,2013-02-20 13:06:00,
2013-02-20 07:21:00,-9.8,-14.0,30.59,North,-999,3.0,4.0,83,0.00,,,0.00,weatherlink.com 1.10,2013-02-20 13:21:00,
2013-02-20 07:36:00,-10.0,-14.0,30.59,North,-999,2.0,4.0,83,0.00,,,0.00,weatherlink.com 1.10,2013-02-20 13:36:00,
2013-02-20 07:52:00,-9.5,-13.0,30.59,North,-999,5.0,6.0,83,0.00,,,0.00,weatherlink.com 1.10,2013-02-20 13:52:00,
2013-02-20 08:08:00,-8.9,-13.0,30.59,North,-999,5.0,7.0,83,0.00,,,0.00,weatherlink.com 1.10,2013-02-20 14:08:00,
2013-02-20 08:22:00,-8.1,-12.0,30.59,North,-999,5.0,6.0,82,0.00,,,0.00,weatherlink.com 1.10,2013-02-20 14:22:00,
2013-02-20 08:37:00,-7.7,-12.0,30.58,North,-999,6.0,7.0,81,0.00,,,0.00,weatherlink.com 1.10,2013-02-20 14:37:00,
2013-02-20 08:52:00,-6.2,-11.0,30.58,North,-999,5.0,5.0,80,0.00,,,0.00,weatherlink.com 1.10,2013-02-20 14:52:00,
2013-02-20 09:07:00,-5.1,-10.0,30.58,North,-999,7.0,8.0,79,0.00,,,0.00,weatherlink.com 1.10,2013-02-20 15:07:00,
2013-02-20 09:22:00,-4.2,-9.0,30.58,North,-999,8.0,9.0,78,0.00,,,0.00,weatherlink.com 1.10,2013-02-20 15:22:00,
2013-02-20 09:37:00,-3.4,-9.0,30.58,North,-999,6.0,8.0,77,0.00,,,0.00,weatherlink.com 1.10,2013-02-20 15:37:00,
2013-02-20 09:52:00,-2.4,-9.0,30.58,North,-999,7.0,10.0,75,0.00,,,0.00,weatherlink.com 1.10,2013-02-20 15:52:00,
2013-02-20 10:07:00,-1.4,-8.0,30.58,North,-999,6.0,9.0,74,0.00,,,0.00,weatherlink.com 1.10,2013-02-20 16:07:00,
2013-02-20 10:22:00,-1.2,-8.0,30.58,North,-999,8.0,9.0,73,0.00,,,0.00,weatherlink.com 1.10,2013-02-20 16:22:00,
2013-02-20 10:37:00,-0.7,-8.0,30.58,North,-999,6.0,10.0,72,0.00,,,0.00,weatherlink.com 1.10,2013-02-20 16:37:00,
2013-02-20 10:52:00,-0.4,-7.0,30.58,North,-999,6.0,8.0,72,0.00,,,0.00,weatherlink.com 1.10,2013-02-20 16:52:00,
2013-02-20 11:07:00,0.3,-7.0,30.59,North,-999,5.0,8.0,72,0.00,,,0.00,weatherlink.com 1.10,2013-02-20 17:07:00,
2013-02-20 11:23:00,1.1,-6.0,30.59,North,-999,4.0,6.0,71,0.00,,,0.00,weatherlink.com 1.10,2013-02-20 17:23:00,
2013-02-20 11:38:00,1.6,-6.0,30.59,North,-999,4.0,6.0,71,0.00,,,0.00,weatherlink.com 1.10,2013-02-20 17:38:00,
2013-02-20 11:53:00,2.6,-5.0,30.60,North,-999,0.0,4.0,70,0.00,,,0.00,weatherlink.com 1.10,2013-02-20 17:53:00,
2013-02-20 12:08:00,5.4,-3.0,30.59,North,-999,0.0,4.0,67,0.00,,,0.00,weatherlink.com 1.10,2013-02-20 18:08:00,
2013-02-20 12:23:00,5.8,-5.0,30.58,North,-999,1.0,3.0,61,0.00,,,0.00,weatherlink.com 1.10,2013-02-20 18:23:00,
2013-02-20 12:38:00,4.7,-5.0,30.58,North,-999,2.0,3.0,65,0.00,,,0.00,weatherlink.com 1.10,2013-02-20 18:38:00,
2013-02-20 12:53:00,6.0,-4.0,30.58,North,-999,0.0,2.0,65,0.00,,,0.00,weatherlink.com 1.10,2013-02-20 18:53:00,
2013-02-20 13:08:00,7.2,-4.0,30.58,North,-999,1.0,1.0,61,0.00,,,0.00,weatherlink.com 1.10,2013-02-20 19:08:00,
2013-02-20 13:23:00,7.3,-3.0,30.58,North,-999,4.0,4.0,64,0.00,,,0.00,weatherlink.com 1.10,2013-02-20 19:23:00,
2013-02-20 13:38:00,6.3,-3.0,30.58,North,-999,2.0,7.0,65,0.00,,,0.00,weatherlink.com 1.10,2013-02-20 19:38:00,
2013-02-20 13:53:00,6.7,-3.0,30.58,North,-999,1.0,5.0,66,0.00,,,0.00,weatherlink.com 1.10,2013-02-20 19:53:00,
2013-02-20 14:08:00,8.0,-3.0,30.58,North,-999,2.0,3.0,62,0.00,,,0.00,weatherlink.com 1.10,2013-02-20 20:08:00,
2013-02-20 14:23:00,7.8,-2.0,30.58,North,-999,2.0,3.0,64,0.00,,,0.00,weatherlink.com 1.10,2013-02-20 20:23:00,
2013-02-20 14:39:00,7.7,-2.0,30.57,North,-999,3.0,5.0,64,0.00,,,0.00,weatherlink.com 1.10,2013-02-20 20:39:00,
2013-02-20 14:55:00,8.1,-2.0,30.57,North,-999,4.0,6.0,64,0.00,,,0.00,weatherlink.com 1.10,2013-02-20 20:55:00,
2013-02-20 15:09:00,8.5,-2.0,30.56,North,-999,4.0,6.0,64,0.00,,,0.00,weatherlink.com 1.10,2013-02-20 21:09:00,
2013-02-20 15:24:00,8.9,-1.0,30.56,North,-999,3.0,6.0,63,0.00,,,0.00,weatherlink.com 1.10,2013-02-20 21:24:00,
2013-02-20 15:39:00,9.3,-1.0,30.55,North,-999,3.0,3.0,62,0.00,,,0.00,weatherlink.com 1.10,2013-02-20 21:39:00,
2013-02-20 15:54:00,9.7,-1.0,30.55,North,-999,2.0,4.0,61,0.00,,,0.00,weatherlink.com 1.10,2013-02-20 21:54:00,
2013-02-20 16:09:00,10.1,-1.0,30.55,North,-999,3.0,4.0,61,0.00,,,0.00,weatherlink.com 1.10,2013-02-20 22:09:00,
2013-02-20 16:24:00,10.4,-1.0,30.55,North,-999,3.0,4.0,60,0.00,,,0.00,weatherlink.com 1.10,2013-02-20 22:24:00,
2013-02-20 16:39:00,10.5,-1.0,30.54,North,-999,4.0,4.0,60,0.00,,,0.00,weatherlink.com 1.10,2013-02-20 22:39:00,
2013-02-20 17:09:00,10.7,0.0,30.54,North,-999,5.0,8.0,62,0.00,,,0.00,weatherlink.com 1.10,2013-02-20 23:09:00,
2013-02-20 17:25:00,10.6,-1.0,30.53,North,-999,5.0,8.0,61,0.00,,,0.00,weatherlink.com 1.10,2013-02-20 23:25:00,
2013-02-20 17:40:00,10.3,-1.0,30.53,North,-999,4.0,6.0,62,0.00,,,0.00,weatherlink.com 1.10,2013-02-20 23:40:00,
2013-02-20 17:55:00,9.7,0.0,30.53,North,-999,3.0,5.0,64,0.00,,,0.00,weatherlink.com 1.10,2013-02-20 23:55:00,
2013-02-20 18:10:00,9.4,-1.0,30.52,North,-999,3.0,6.0,64,0.00,,,0.00,weatherlink.com 1.10,2013-02-21 00:10:00,
2013-02-20 18:25:00,9.2,0.0,30.53,North,-999,1.0,3.0,65,0.00,,,0.00,weatherlink.com 1.10,2013-02-21 00:25:00,
2013-02-20 18:40:00,9.0,-1.0,30.54,North,-999,1.0,1.0,65,0.00,,,0.00,weatherlink.com 1.10,2013-02-21 00:40:00,
2013-02-20 18:55:00,8.6,-1.0,30.53,North,-999,2.0,2.0,66,0.00,,,0.00,weatherlink.com 1.10,2013-02-21 00:55:00,
2013-02-20 19:10:00,8.4,-1.0,30.53,North,-999,2.0,2.0,67,0.00,,,0.00,weatherlink.com 1.10,2013-02-21 01:10:00,
2013-02-20 19:25:00,8.3,-1.0,30.53,North,-999,2.0,3.0,67,0.00,,,0.00,weatherlink.com 1.10,2013-02-21 01:25:00,
2013-02-20 19:40:00,8.3,-1.0,30.52,North,-999,1.0,3.0,67,0.00,,,0.00,weatherlink.com 1.10,2013-02-21 01:40:00,
2013-02-20 19:55:00,8.3,-1.0,30.52,North,-999,1.0,2.0,67,0.00,,,0.00,weatherlink.com 1.10,2013-02-21 01:55:00,
2013-02-20 20:10:00,7.8,-1.0,30.52,North,-999,0.0,1.0,68,0.00,,,0.00,weatherlink.com 1.10,2013-02-21 02:10:00,
2013-02-20 20:26:00,7.3,-1.0,30.52,North,-999,0.0,1.0,69,0.00,,,0.00,weatherlink.com 1.10,2013-02-21 02:26:00,
2013-02-20 20:40:00,7.1,-1.0,30.52,North,-999,0.0,0.0,69,0.00,,,0.00,weatherlink.com 1.10,2013-02-21 02:40:00,
2013-02-20 20:56:00,7.4,-1.0,30.52,North,-999,0.0,1.0,69,0.00,,,0.00,weatherlink.com 1.10,2013-02-21 02:56:00,
2013-02-20 21:10:00,7.9,-1.0,30.51,North,-999,1.0,2.0,68,0.00,,,0.00,weatherlink.com 1.10,2013-02-21 03:10:00,
2013-02-20 21:25:00,7.0,-1.0,30.52,North,-999,0.0,0.0,69,0.00,,,0.00,weatherlink.com 1.10,2013-02-21 03:25:00,
2013-02-20 21:40:00,6.3,-2.0,30.51,North,-999,2.0,2.0,70,0.00,,,0.00,weatherlink.com 1.10,2013-02-21 03:40:00,
2013-02-20 21:55:00,4.8,-2.0,30.52,North,-999,0.0,2.0,72,0.00,,,0.00,weatherlink.com 1.10,2013-02-21 03:55:00,
2013-02-20 22:10:00,5.3,-2.0,30.52,North,-999,0.0,1.0,73,0.00,,,0.00,weatherlink.com 1.10,2013-02-21 04:10:00,
2013-02-20 22:25:00,4.2,-3.0,30.52,North,-999,1.0,1.0,73,0.00,,,0.00,weatherlink.com 1.10,2013-02-21 04:25:00,
2013-02-20 22:41:00,5.1,-2.0,30.52,North,-999,1.0,1.0,74,0.00,,,0.00,weatherlink.com 1.10,2013-02-21 04:41:00,
2013-02-20 22:55:00,5.4,-2.0,30.52,North,-999,2.0,2.0,71,0.00,,,0.00,weatherlink.com 1.10,2013-02-21 04:55:00,
2013-02-20 23:11:00,2.3,-4.0,30.52,North,-999,4.0,4.0,76,0.00,,,0.00,weatherlink.com 1.10,2013-02-21 05:11:00,
2013-02-20 23:26:00,2.4,-3.0,30.52,North,-999,4.0,5.0,77,0.00,,,0.00,weatherlink.com 1.10,2013-02-21 05:26:00,
2013-02-20 23:40:00,3.0,-3.0,30.52,North,-999,0.0,3.0,77,0.00,,,0.00,weatherlink.com 1.10,2013-02-21 05:40:00,
2013-02-20 23:56:00,3.2,-3.0,30.52,North,-999,2.0,2.0,75,0.00,,,0.00,weatherlink.com 1.10,2013-02-21 05:56:00,